Storm Lake, IA

6:36 PM CDT on August 19, 2017 (GMT -0500)
Storm Lake Municipal

Weather History for KSLB - June, 2013

Change the Weather History Date:

Saturday, June 29, 2013

  Actual Average Record
Temperature  
Mean Temperature 70 °F -  
Max Temperature 77 °F 81 °F 95 °F (2002)
Min Temperature 62 °F 61 °F -99 °F (1997)
Cooling Degree Days 4    
Growing Degree Days 20 (Base 50)    
Moisture  
Dew Point 56 °F    
Average Humidity 64    
Maximum Humidity 88    
Minimum Humidity 44    
Precipitation  
Precipitation 0.00 in - - ()
Sea Level Pressure  
Sea Level Pressure 29.89 in    
Wind  
Wind Speed 15 mph (North)    
Max Wind Speed 29 mph    
Max Gust Speed 38 mph    
Visibility 10 miles    
Events      
Averages and records for this station are not official NWS values.
T = Trace of Precipitation, MM = Missing Value Source: NWS Daily Summary

Daily Weather History Graph

Daily Weather History Graph

Search for Another Location

Airport or City:

Trip Planner

Search our weather history database for the weather conditions in past years. The results will help you decide how hot, cold, wet, or windy it might be!

Date:

Astronomy

Jun. 29, 2013 Rise Set
Actual Time 5:46 AM CDT 9:02 PM CDT
Civil Twilight 5:11 AM CDT 9:37 PM CDT
Nautical Twilight 4:26 AM CDT 10:22 PM CDT
Astronomical Twilight 3:31 AM CDT 11:17 PM CDT
Moon 12:22 AM CDT (6/29) 1:08 PM CDT (6/29)
Length of Visible Light 16h 26m
Length of Day
15h 16m
Waning Gibbous, 55% of the Moon is Illuminated
Jun 29
Waning Gibbous
Jun 29
Last Quarter
Jul 8
New
Jul 15
First Quarter
Jul 22
Full

Hourly Weather History & Observations

Time (CDT) Temp. Dew Point Humidity Pressure Visibility Wind Dir Wind Speed Gust Speed Precip Events Conditions
12:15 AM 68.0 °F 53.6 °F 60% 29.87 in 10.0 mi NW 11.5 mph - N/A   Clear
12:35 AM 68.0 °F 53.6 °F 60% 29.87 in 10.0 mi NW 11.5 mph - N/A   Clear
12:55 AM 68.0 °F 53.6 °F 60% 29.86 in 10.0 mi NW 11.5 mph - N/A   Clear
1:15 AM 66.2 °F 53.6 °F 64% 29.86 in 10.0 mi NW 11.5 mph - N/A   Clear
1:35 AM 66.2 °F 53.6 °F 64% 29.86 in 10.0 mi NW 11.5 mph - N/A   Clear
1:55 AM 66.2 °F 53.6 °F 64% 29.85 in 10.0 mi WNW 11.5 mph - N/A   Clear
2:15 AM 64.4 °F 53.6 °F 68% 29.85 in 10.0 mi NW 11.5 mph - N/A   Clear
2:35 AM 64.4 °F 55.4 °F 73% 29.85 in 10.0 mi NW 11.5 mph - N/A   Clear
2:55 AM 64.4 °F 55.4 °F 73% 29.85 in 10.0 mi NW 11.5 mph - N/A   Clear
3:15 AM 64.4 °F 55.4 °F 73% 29.85 in 10.0 mi NW 11.5 mph - N/A   Clear
3:35 AM 64.4 °F 55.4 °F 73% 29.85 in 10.0 mi NW 10.4 mph - N/A   Clear
3:55 AM 64.4 °F 55.4 °F 73% 29.85 in 10.0 mi NW 10.4 mph 17.3 mph N/A   Clear
4:15 AM 64.4 °F 55.4 °F 73% 29.86 in 10.0 mi NW 11.5 mph - N/A   Clear
4:35 AM 64.4 °F 55.4 °F 73% 29.86 in 10.0 mi NW 12.7 mph - N/A   Clear
4:55 AM 64.4 °F 55.4 °F 73% 29.86 in 10.0 mi NW 11.5 mph 18.4 mph N/A   Clear
5:15 AM 62.6 °F 57.2 °F 82% 29.87 in 10.0 mi NW 12.7 mph - N/A   Clear
5:35 AM 62.6 °F 57.2 °F 82% 29.86 in 10.0 mi NW 13.8 mph - N/A   Clear
5:55 AM 62.6 °F 57.2 °F 82% 29.86 in 10.0 mi NW 13.8 mph - N/A   Clear
6:15 AM 62.6 °F 57.2 °F 82% 29.86 in 10.0 mi NW 15.0 mph - N/A   Clear
6:35 AM 64.4 °F 57.2 °F 77% 29.87 in 10.0 mi NW 15.0 mph 20.7 mph N/A   Clear
6:55 AM 64.4 °F 57.2 °F 77% 29.86 in 10.0 mi NW 13.8 mph 20.7 mph N/A   Clear
7:15 AM 64.4 °F 57.2 °F 77% 29.86 in 10.0 mi NW 19.6 mph 26.5 mph N/A   Clear
7:35 AM 66.2 °F 57.2 °F 73% 29.85 in 10.0 mi NW 18.4 mph 25.3 mph N/A   Clear
7:55 AM 66.2 °F 57.2 °F 73% 29.86 in 10.0 mi NNW 19.6 mph 29.9 mph N/A   Clear
8:15 AM 68.0 °F 59.0 °F 73% 29.86 in 10.0 mi NNW 21.9 mph 32.2 mph N/A   Clear
8:35 AM 68.0 °F 59.0 °F 73% 29.86 in 10.0 mi North 19.6 mph 28.8 mph N/A   Clear
8:55 AM 69.8 °F 59.0 °F 68% 29.86 in 10.0 mi North 26.5 mph 34.5 mph N/A   Partly Cloudy
9:15 AM 69.8 °F 59.0 °F 68% 29.87 in 10.0 mi North 26.5 mph 38.0 mph N/A   Scattered Clouds
9:35 AM 69.8 °F 59.0 °F 68% 29.87 in 10.0 mi NNW 26.5 mph 32.2 mph N/A   Mostly Cloudy
9:55 AM 69.8 °F 59.0 °F 68% 29.87 in 10.0 mi NNW 27.6 mph 38.0 mph N/A   Mostly Cloudy
10:15 AM 69.8 °F 57.2 °F 64% 29.87 in 10.0 mi NNW 21.9 mph 32.2 mph N/A   Mostly Cloudy
10:35 AM 71.6 °F 57.2 °F 60% 29.87 in 10.0 mi North 25.3 mph 32.2 mph N/A   Mostly Cloudy
10:55 AM 69.8 °F 57.2 °F 64% 29.87 in 10.0 mi North 23.0 mph 36.8 mph N/A   Mostly Cloudy
11:15 AM 71.6 °F 57.2 °F 60% 29.88 in 10.0 mi North 27.6 mph 34.5 mph N/A   Mostly Cloudy
11:35 AM 69.8 °F 57.2 °F 64% 29.88 in 10.0 mi NNW 28.8 mph - N/A   Mostly Cloudy
11:55 AM 66.2 °F 60.8 °F 83% 29.89 in 5.0 mi North 21.9 mph 35.7 mph N/A   Haze
12:15 PM 68.0 °F 59.0 °F 73% 29.89 in 10.0 mi North 25.3 mph 32.2 mph N/A   Mostly Cloudy
12:35 PM 69.8 °F 59.0 °F 68% 29.89 in 10.0 mi North 21.9 mph 31.1 mph N/A   Mostly Cloudy
12:55 PM 73.4 °F 59.0 °F 61% 29.89 in 10.0 mi North 24.2 mph 31.1 mph N/A   Mostly Cloudy
1:15 PM 73.4 °F 57.2 °F 57% 29.89 in 10.0 mi North 23.0 mph - N/A   Mostly Cloudy
1:35 PM 71.6 °F 57.2 °F 60% 29.89 in 10.0 mi North 21.9 mph 28.8 mph N/A   Overcast
1:55 PM 64.4 °F 60.8 °F 88% 29.91 in 5.0 mi North 20.7 mph 35.7 mph N/A   Light Drizzle
2:15 PM 68.0 °F 59.0 °F 73% 29.91 in 10.0 mi North 20.7 mph - N/A   Partly Cloudy
2:35 PM 71.6 °F 59.0 °F 64% 29.91 in 10.0 mi North 16.1 mph 25.3 mph N/A   Partly Cloudy
2:55 PM 73.4 °F 57.2 °F 57% 29.91 in 10.0 mi North 20.7 mph 28.8 mph N/A   Partly Cloudy
3:15 PM 75.2 °F 57.2 °F 53% 29.91 in 10.0 mi North 18.4 mph 26.5 mph N/A   Partly Cloudy
3:35 PM 75.2 °F 55.4 °F 50% 29.91 in 10.0 mi NNE 21.9 mph 28.8 mph N/A   Partly Cloudy
3:55 PM 75.2 °F 53.6 °F 47% 29.90 in 10.0 mi North 18.4 mph 26.5 mph N/A   Partly Cloudy
4:15 PM 77.0 °F 53.6 °F 44% 29.90 in 10.0 mi North 20.7 mph 27.6 mph N/A   Scattered Clouds
4:35 PM 75.2 °F 51.8 °F 44% 29.90 in 10.0 mi North 18.4 mph 27.6 mph N/A   Partly Cloudy
4:55 PM 77.0 °F 53.6 °F 44% 29.90 in 10.0 mi North 19.6 mph 26.5 mph N/A   Partly Cloudy
5:15 PM 77.0 °F 53.6 °F 44% 29.90 in 10.0 mi NNE 16.1 mph 23.0 mph N/A   Partly Cloudy
5:35 PM 77.0 °F 53.6 °F 44% 29.90 in 10.0 mi North 17.3 mph 26.5 mph N/A   Scattered Clouds
5:55 PM 75.2 °F 51.8 °F 44% 29.90 in 10.0 mi North 18.4 mph - N/A   Scattered Clouds
6:15 PM 75.2 °F 53.6 °F 47% 29.90 in 10.0 mi NE 13.8 mph 20.7 mph N/A   Mostly Cloudy
6:35 PM 75.2 °F 51.8 °F 44% 29.90 in 10.0 mi NNE 13.8 mph - N/A   Partly Cloudy
6:55 PM 75.2 °F 51.8 °F 44% 29.90 in 10.0 mi North 15.0 mph 26.5 mph N/A   Clear
7:15 PM 75.2 °F 51.8 °F 44% 29.90 in 10.0 mi North 17.3 mph 25.3 mph N/A   Clear
7:35 PM 75.2 °F 53.6 °F 47% 29.91 in 10.0 mi NE 16.1 mph 25.3 mph N/A   Scattered Clouds
7:55 PM 73.4 °F 55.4 °F 53% 29.92 in 10.0 mi ENE 13.8 mph 19.6 mph N/A   Scattered Clouds
8:15 PM 73.4 °F 55.4 °F 53% 29.92 in 10.0 mi NE 13.8 mph - N/A   Clear
8:35 PM 71.6 °F 55.4 °F 57% 29.92 in 10.0 mi NNE 10.4 mph 16.1 mph N/A   Clear
8:55 PM 69.8 °F 55.4 °F 60% 29.93 in 10.0 mi NNE 9.2 mph - N/A   Clear
9:15 PM 69.8 °F 53.6 °F 56% 29.93 in 10.0 mi NNE 10.4 mph - N/A   Clear
9:35 PM 69.8 °F 53.6 °F 56% 29.94 in 10.0 mi NNE 8.1 mph - N/A   Partly Cloudy
9:55 PM 68.0 °F 55.4 °F 64% 29.94 in 10.0 mi NE 9.2 mph - N/A   Partly Cloudy
10:15 PM 68.0 °F 55.4 °F 64% 29.95 in 10.0 mi NE 11.5 mph - N/A   Clear
10:35 PM 68.0 °F 53.6 °F 60% 29.95 in 10.0 mi NE 10.4 mph - N/A   Clear
10:55 PM 68.0 °F 55.4 °F 64% 29.96 in 10.0 mi NE 8.1 mph - N/A   Clear
11:15 PM 66.2 °F 55.4 °F 68% 29.96 in 10.0 mi NE 9.2 mph - N/A   Scattered Clouds
11:35 PM 66.2 °F 55.4 °F 68% 29.97 in 10.0 mi NNE 6.9 mph - N/A   Partly Cloudy
11:55 PM 64.4 °F 55.4 °F 73% 29.97 in 10.0 mi NE 6.9 mph - N/A   Clear